Date,TemperatureHighF,TemperatureAvgF,TemperatureLowF,DewpointHighF,DewpointAvgF,DewpointLowF,HumidityHigh,HumidityAvg,HumidityLow,PressureMaxIn,PressureMinIn,WindSpeedMaxMPH,WindSpeedAvgMPH,GustSpeedMaxMPH,PrecipitationSumIn
2013-12-1,45.5,39.6,36.0,35.2,31.0,25.2,85,71,57,30.04,29.83,13,2,16,0.70
2013-12-2,43.2,39.5,34.9,35.0,33.7,32.1,92,80,70,29.83,29.73,5,0,8,29.96
2013-12-3,52.0,36.2,26.4,36.1,29.7,23.9,95,78,46,29.88,29.77,4,0,6,0.00
2013-12-4,52.9,42.7,35.1,42.5,36.8,30.4,91,80,62,29.89,29.75,9,1,14,0.01
2013-12-5,64.8,51.8,40.6,55.1,45.2,35.4,85,78,65,29.90,29.62,16,7,21,0.01
2013-12-6,40.8,34.9,30.6,35.9,29.3,23.8,95,80,69,30.12,29.89,8,3,12,0.04
2013-12-7,31.8,27.3,22.5,26.8,18.1,12.3,85,68,53,30.43,30.11,10,5,15,0.00
2013-12-8,30.4,25.6,19.8,23.7,15.6,11.4,88,66,48,30.43,30.03,8,2,14,0.00
2013-12-9,40.8,35.0,28.0,37.2,30.0,22.5,90,82,70,30.04,29.72,17,7,26,0.01
2013-12-10,33.3,24.5,18.5,25.2,16.0,7.0,95,70,53,29.91,29.76,13,7,20,0.00
2013-12-11,24.6,20.4,12.0,21.6,13.2,5.9,93,74,57,30.13,29.91,13,6,19,0.00
2013-12-12,18.9,14.6,9.9,16.2,9.6,4.2,92,81,64,30.18,29.89,12,5,17,0.00
2013-12-13,25.2,20.1,14.2,21.6,15.8,9.8,92,83,70,30.25,29.87,13,5,22,0.00
2013-12-14,22.6,16.2,11.7,20.1,13.3,8.5,90,88,86,30.27,29.58,11,4,16,0.00
2013-12-15,26.1,23.3,18.0,24.3,21.1,11.1,95,91,75,29.72,29.46,13,4,18,0.00
2013-12-16,22.8,15.0,1.2,14.0,9.6,-3.3,90,79,61,30.03,29.72,12,4,18,0.00
2013-12-17,29.1,20.8,0.1,27.2,17.5,-4.1,94,87,81,29.99,29.75,10,2,17,0.00
2013-12-18,32.7,28.5,25.5,25.8,22.8,19.7,93,79,64,29.92,29.77,12,5,18,0.00
2013-12-19,42.8,37.5,28.8,36.5,28.0,16.5,85,69,54,29.91,29.74,14,5,22,0.25
2013-12-20,46.6,42.8,38.3,44.8,40.3,34.9,96,91,77,29.87,29.64,11,2,14,0.23
2013-12-21,55.8,45.4,34.0,53.2,43.8,32.9,100,94,86,29.76,29.59,13,4,21,0.68
2013-12-22,45.0,38.5,32.5,45.0,37.4,30.2,100,96,84,29.69,26.62,15,4,22,3.41
2013-12-23,41.7,35.6,25.5,38.2,30.4,19.0,94,82,64,26.62,26.62,12,5,18,0.00
2013-12-24,27.1,21.8,14.7,24.1,18.4,11.3,93,87,76,26.62,26.62,11,3,16,0.00
2013-12-25,25.9,16.6,3.4,21.7,13.2,-0.4,90,86,80,26.62,26.62,6,1,8,0.00
2013-12-26,32.4,27.7,21.9,29.9,22.5,13.3,94,81,68,26.62,26.62,11,4,18,0.00
2013-12-27,37.0,29.8,20.5,30.7,25.0,13.7,90,82,71,26.62,26.62,10,4,16,0.00
2013-12-28,47.1,41.1,36.5,35.4,31.8,28.3,86,70,54,29.92,26.62,16,7,24,0.03
2013-12-29,49.1,43.4,29.1,40.7,32.6,25.1,94,68,40,29.81,29.49,17,5,21,0.12
2013-12-30,29.5,20.2,17.2,28.2,12.8,5.9,95,73,59,30.06,29.63,14,6,20,0.00
2013-12-31,22.8,18.3,13.6,20.7,10.8,3.0,92,72,58,30.08,29.81,13,5,19,0.00